Meteo Giornale » Osservazioni meteo Italia » Falconara

ore: 03:50 - Osservazioni Meteo Falconara
Lat. 43° 37' N Lon. 13° 22' E Alt. 12 metri s.l.m.

sereno Europe/Rome

10 °C

Sereno

Temp. 24 Ore

8 °C

18 °C

Nord

5.5 Km/h

Dew point 10 °C

Umidità 100 %

Visibilità  10 Km

Il sole sorge alle ore 07:27

Il sole tramonta alle ore 18:14

Data e Ora Cielo e Fenomeni T °C DP °C Um. % Pres. hPa Vis. km Vento km/h
Oggi h: 03:50 sereno Sereno 10 10 100 1024 10 N 5.5
Oggi h: 03:20 sereno Sereno 9 9 100 1024 10 S/SO 7.4
Oggi h: 02:50 sereno Sereno 10 10 100 1024 10 S/SO 7.4
Oggi h: 02:20 sereno Sereno 10 10 100 1024 10 S/SO 9.3
Oggi h: 01:50 sereno Sereno 11 11 100 1024 10 N 5.5
Oggi h: 01:20 sereno Sereno 10 10 100 1024 10 S/SO 11.1
Oggi h: 00:50 sereno Sereno 10 10 100 1024 10 SO 9.3
Oggi h: 00:20 sereno Sereno 10 10 100 1024 10 S/SO 11.1
Ieri h: 23:50 sereno Sereno 10 10 100 1024 10 N 1.8
Ieri h: 23:20 sereno Sereno 11 11 100 1024 10 N 3.7
Ieri h: 22:50 sereno Sereno 10 10 100 1024 10 N 3.7
Ieri h: 22:20 sereno Sereno 11 11 100 1024 10 S/SO 7.4
Ieri h: 21:50 sereno Sereno 12 12 100 1024 10 N 5.5
Ieri h: 21:20 sereno Sereno 12 12 100 1025 10 S 7.4
Ieri h: 20:50 sereno Sereno 13 12 93 1025 10 N 5.5
Ieri h: 20:20 sereno Sereno 12 11 93 1025 10 N 5.5
Ieri h: 19:50 sereno Sereno 14 13 93 1025 10 N 5.5
Ieri h: 19:20 sereno Sereno 14 13 93 1025 10 N 5.5
Ieri h: 18:50 sereno Sereno 16 14 87 1024 10 N 3.7
Ieri h: 18:20 sereno Sereno 16 15 93 1024 10 N 1.8
Ieri h: 17:50 sereno Sereno 17 15 88 1024 10 N 3.7
Ieri h: 17:20 sereno Sereno 17 15 88 1024 10 E/NE 9.3
Ieri h: 16:50 sereno Sereno 18 16 88 1024 10 E/NE 11.1
Ieri h: 15:50 sereno Sereno 17 15 88 1024 10 NE 14.8
Ieri h: 15:20 sereno Sereno 18 15 82 1024 10 NE 13
Ieri h: 14:50 sereno Sereno 17 15 88 1024 10 E/NE 11.1
Ieri h: 14:20 sereno Sereno 17 14 82 1025 10 NE 13
Ieri h: 13:50 sereno Sereno 17 14 82 1025 10 NE 13
Ieri h: 13:20 sereno Sereno 18 14 77 1025 10 NE 11.1
Ieri h: 12:50 sereno Sereno 17 13 77 1025 10 NE 11.1
Ieri h: 12:20 sereno Sereno 18 13 72 1026 10 N 5.5
Ieri h: 11:50 sereno Sereno 18 13 72 1026 10 N 3.7
Ieri h: 11:20 sereno Sereno 17 12 72 1026 10 N 5.5
Ieri h: 10:50 sereno Sereno 16 12 77 1026 10 N 3.7
Ieri h: 10:20 sereno Sereno 14 12 87 1025 10 N 5.5
Ieri h: 09:50 sereno Sereno 13 12 93 1025 10 N 5.5
Ieri h: 09:20 sereno Sereno 12 11 93 1025 10 SO 7.4
Ieri h: 08:50 sereno Sereno 10 10 100 1025 10 N 5.5
Ieri h: 08:20 sereno Sereno 9 9 100 1025 10 N 5.5
Ieri h: 07:50 sereno Sereno 8 8 100 1025 10 N 5.5
Ieri h: 07:20 sereno Sereno 8 8 100 1025 10 S 7.4
Ieri h: 06:50 sereno Sereno 8 8 100 1024 10 N 5.5
Ieri h: 05:50 sereno Sereno 8 8 100 1024 10 N 5.5
Ieri h: 05:20 sereno Sereno 9 9 100 1024 10 S/SO 7.4
Ieri h: 04:50 sereno Sereno 9 9 100 1024 10 S/SO 7.4